FW2426 Weather Reports


time (UTC)temp
C
wind
direction
speed
KPH
gust
KPH
rain 1hr
cm
rain 24hr
cm
rain mn
cm
humidity
%
barometer
mb
20260505180142 21 278 1.6 9.7 0.00 0.00 0.00 56 1014.4
20260505174530 20 273 1.6 9.7 0.00 0.00 0.00 57 1014.4
20260505173030 20 269 1.6 8.0 0.00 0.00 0.00 58 1014.4
20260505171528 20 285 1.6 8.0 0.00 0.00 0.00 57 1014.4
20260505170044 20 273 1.6 11.3 0.00 0.00 0.00 57 1014.3
20260505170037 20 276 1.6 9.7 0.00 0.00 0.00 57 1014.3
20260505163031 19 255 0.0 4.8 0.00 0.00 0.00 59 1014.3
20260505161535 19 258 0.0 11.3 0.00 0.00 0.00 59 1014.4
20260505153035 18 247 0.0 6.4 0.00 0.00 0.00 62 1014.2
20260505124535 15 276 0.0 11.3 0.00 0.00 0.00 68 1012.7
20260505123141 16 281 0.0 8.0 0.00 0.00 0.00 68 1012.5
20260505120035 16 278 1.6 8.0 0.00 0.00 0.00 68 1012.3
20260505114535 16 269 0.0 9.7 0.00 0.00 0.00 67 1012.3
20260505111538 16 260 0.0 8.0 0.00 0.00 0.00 67 1012.0
20260505101531 17 266 1.6 8.0 0.00 0.00 0.00 66 1011.5
20260505094535 17 278 0.0 11.3 0.00 0.00 0.00 65 1011.4
20260505093031 17 272 0.0 8.0 0.00 0.00 0.00 64 1011.4
20260505091530 17 269 0.0 12.9 0.00 0.00 0.00 64 1011.4
20260505090035 18 270 0.0 11.3 0.00 0.00 0.00 63 1011.3
20260505084533 18 265 0.0 9.7 0.00 0.00 0.00 62 1011.1
20260505080033 18 275 0.0 8.0 0.00 0.00 0.00 62 1011.0
20260505073037 18 267 0.0 9.7 0.00 0.00 0.00 62 1010.9
20260505071537 18 216 0.0 6.4 0.00 0.00 0.00 62 1010.8
20260505070036 18 257 0.0 8.0 0.00 0.00 0.00 61 1010.7
20260505064534 19 245 0.0 4.8 0.00 0.00 0.00 58 1010.6
20260505063028 19 258 1.6 9.7 0.00 0.00 0.00 58 1010.4
20260505061536 20 263 0.0 8.0 0.00 0.00 0.00 57 1010.4
20260505060111 20 275 1.6 9.7 0.00 0.00 0.00 55 1010.2
20260505053037 20 282 0.0 8.0 0.00 0.00 0.00 54 1010.2
20260505051533 20 285 0.0 14.5 0.00 0.00 0.00 53 1010.2
20260505040110 21 225 0.0 16.1 0.00 0.00 0.00 47 1009.4
20260505034611 21 259 0.0 6.4 0.00 0.00 0.00 49 1009.2
20260505033032 21 259 0.0 9.7 0.00 0.00 0.00 48 1009.0
20260505031620 22 239 0.0 8.0 0.00 0.00 0.00 47 1008.8
20260505030034 22 262 0.0 8.0 0.00 0.00 0.00 47 1008.6
20260505024531 22 259 1.6 11.3 0.00 0.00 0.00 46 1008.5
20260505023107 23 258 0.0 6.4 0.00 0.00 0.00 46 1008.4
20260505021531 23 274 0.0 9.7 0.00 0.00 0.00 45 1008.4
20260505020029 24 271 0.0 9.7 0.00 0.00 0.00 44 1008.4
20260505014607 24 261 0.0 6.4 0.00 0.00 0.00 43 1008.3
20260505013036 25 257 0.0 12.9 0.00 0.00 0.00 41 1008.2
20260505011532 26 246 1.6 12.9 0.00 0.00 0.00 40 1008.2
20260505010040 26 268 0.0 14.5 0.00 0.00 0.00 40 1008.2
20260505004531 26 285 1.6 11.3 0.00 0.00 0.00 40 1008.2
20260505000043 26 275 1.6 11.3 0.00 0.00 0.00 40 1008.4
20260504233037 27 275 0.0 8.0 0.00 0.00 0.00 39 1008.4
20260504230035 28 295 1.6 9.7 0.00 0.00 0.00 37 1008.8
20260504224644 29 286 0.0 8.0 0.00 0.00 0.00 37 1009.0
20260504220032 30 302 1.6 9.7 0.00 0.00 0.00 37 1009.2
20260504214643 30 302 0.0 9.7 0.00 0.00 0.00 37 1009.5
20260504213136 30 311 0.0 8.0 0.00 0.00 0.00 37 1009.6
20260504211537 30 288 1.6 9.7 0.00 0.00 0.00 36 1009.7
20260504210032 30 293 0.0 8.0 0.00 0.00 0.00 38 1009.8
20260504203036 28 302 0.0 6.4 0.00 0.00 0.00 42 1010.2
20260504200037 27 284 0.0 6.4 0.00 0.00 0.00 44 1010.4
20260504194614 26 279 0.0 9.7 0.00 0.00 0.00 44 1010.3
20260504193035 26 292 1.6 8.0 0.00 0.00 0.00 44 1010.4
20260504191552 25 299 1.6 14.5 0.00 0.00 0.00 45 1010.6
20260504184536 25 306 0.0 11.3 0.00 0.00 0.00 46 1010.6
20260504183037 25 274 1.6 8.0 0.00 0.00 0.00 46 1010.7
20260504181643 24 273 0.0 8.0 0.00 0.00 0.00 48 1010.7